{"data":{"norad_id":64688,"intl_designator":"2025-139AA","name":"STARLINK-34262","alt_names":[],"object_type":"PAYLOAD","status":"ACTIVE","operator":null,"country":"US","launch_date":"2025-06-28","launch_site_code":"AFETR","launch_vehicle":null,"mission":null,"orbit_class":"UNKNOWN","rcs_meters":null,"size_class":null,"mass_kg":null,"dimensions":null,"purposes":["comms"],"wikipedia_slug":null,"has_3d_model":false,"image_url":null,"decayed_at":null,"tle_current":{"epoch":"2026-05-25T03:50:10.220928Z","epoch_age_seconds":55116,"freshness":"FRESH","line1":"1 64688U 25139AA  26145.15984052  .00025278  00000+0  75671-3 0  9996","line2":"2 64688  53.1594 131.0129 0000889  65.9664 294.1432 15.34401767 52065","mean_motion":15.34401767,"eccentricity":8.89e-5,"inclination_deg":53.1594,"raan_deg":131.0129,"arg_perigee_deg":65.9664,"mean_anomaly_deg":294.1432,"bstar":0.00075671,"rev_number":5206,"period_min":93.847650007301,"perigee_km":462.08983808531,"apogee_km":463.30613854623,"semimajor_km":6840.8349883158,"source":"CELESTRAK","updated_at":"2026-05-25T13:38:20.508799Z"}}}